| time (UTC) | temp F | wind direction | speed knots | gust knots | rain 1hr in | rain 24hr in | rain mn in | humidity % | barometer mb |
| 20260904094552 | 68 | 242 | 15.6 | 23.5 | 0.00 | 0.00 | 0.00 | 65 | 1018.3 |
| 20260904093055 | 67 | 248 | 14.8 | 22.6 | 0.00 | 0.00 | 0.00 | 66 | 1018.4 |
| 20260904091550 | 68 | 256 | 16.5 | 24.3 | 0.00 | 0.00 | 0.00 | 65 | 1018.4 |
| 20260904090057 | 69 | 258 | 15.6 | 20.9 | 0.00 | 0.00 | 0.00 | 63 | 1018.6 |
| 20260904084554 | 69 | 271 | 13.0 | 20.0 | 0.00 | 0.00 | 0.00 | 65 | 1019.1 |
| 20260904083105 | 68 | 254 | 11.3 | 18.2 | 0.00 | 0.00 | 0.00 | 69 | 1019.1 |
| 20260904081550 | 65 | 263 | 7.8 | 13.9 | 0.00 | 0.00 | 0.00 | 72 | 1019.2 |
| 20260904080057 | 63 | 292 | 2.6 | 7.0 | 0.00 | 0.00 | 0.00 | 72 | 1019.0 |
| 20260904074553 | 63 | 317 | 1.7 | 12.2 | 0.00 | 0.00 | 0.00 | 73 | 1018.9 |
| 20260904073053 | 63 | 263 | 8.7 | 11.3 | 0.00 | 0.00 | 0.00 | 75 | 1018.9 |
| 20260904071601 | 61 | 272 | 1.7 | 10.4 | 0.00 | 0.00 | 0.00 | 76 | 1018.9 |
| 20260904070059 | 60 | 290 | 1.7 | 7.0 | 0.00 | 0.00 | 0.00 | 79 | 1018.6 |
| 20260904064614 | 59 | 80 | 1.7 | 3.5 | 0.00 | 0.00 | 0.00 | 79 | 1018.5 |
| 20260904063059 | 58 | 249 | 1.7 | 4.3 | 0.00 | 0.00 | 0.00 | 80 | 1018.8 |
| 20260904061600 | 58 | 18 | 4.3 | 7.0 | 0.00 | 0.00 | 0.00 | 80 | 1018.5 |
| 20260904060057 | 57 | 26 | 1.7 | 6.1 | 0.00 | 0.00 | 0.00 | 80 | 1018.7 |
| 20260904054554 | 57 | 38 | 3.5 | 5.2 | 0.00 | 0.00 | 0.00 | 81 | 1018.4 |
| 20260904053057 | 57 | 61 | 2.6 | 4.3 | 0.00 | 0.00 | 0.00 | 83 | 1018.4 |
| 20260904051550 | 56 | 200 | 1.7 | 4.3 | 0.00 | 0.00 | 0.00 | 85 | 1018.4 |
| 20260904050112 | 55 | 262 | 2.6 | 4.3 | 0.00 | 0.00 | 0.00 | 86 | 1018.4 |
| 20260904044556 | 54 | 43 | 0.0 | 5.2 | 0.00 | 0.00 | 0.00 | 87 | 1018.4 |
| 20260904043102 | 53 | 70 | 1.7 | 6.1 | 0.00 | 0.00 | 0.00 | 87 | 1018.6 |
| 20260904041606 | 52 | 74 | 0.9 | 3.5 | 0.00 | 0.00 | 0.00 | 88 | 1018.3 |
| 20260904040051 | 51 | 0 | 0.9 | 3.5 | 0.00 | 0.00 | 0.00 | 88 | 1018.3 |
| 20260904034611 | 51 | 96 | 2.6 | 3.5 | 0.00 | 0.00 | 0.00 | 88 | 1018.2 |
| 20260904033059 | 51 | 96 | 0.0 | 2.6 | 0.00 | 0.00 | 0.00 | 88 | 1018.3 |
| 20260904031554 | 50 | 0 | 0.0 | 3.5 | 0.00 | 0.00 | 0.00 | 88 | 1018.3 |
| 20260904030052 | 49 | 90 | 2.6 | 5.2 | 0.00 | 0.00 | 0.00 | 88 | 1018.4 |
| 20260904024550 | 48 | 261 | 0.9 | 2.6 | 0.00 | 0.03 | 0.00 | 88 | 1018.4 |
| 20260904023047 | 48 | 0 | 0.0 | 3.5 | 0.00 | 0.03 | 0.00 | 88 | 1018.4 |
| 20260904021553 | 48 | 244 | 0.0 | 3.5 | 0.00 | 0.03 | 0.00 | 87 | 1018.7 |
| 20260904020051 | 49 | 42 | 0.9 | 3.5 | 0.00 | 0.03 | 0.00 | 88 | 1018.6 |
| 20260904014553 | 48 | 0 | 0.9 | 3.5 | 0.00 | 0.03 | 0.00 | 87 | 1018.8 |
| 20260904013054 | 48 | 0 | 0.0 | 3.5 | 0.00 | 0.03 | 0.00 | 87 | 1018.8 |
| 20260904011551 | 48 | 239 | 0.0 | 4.3 | 0.00 | 0.03 | 0.00 | 87 | 1019.2 |
| 20260904010057 | 48 | 0 | 0.0 | 3.5 | 0.00 | 0.03 | 0.00 | 86 | 1019.2 |
| 20260904004554 | 48 | 0 | 0.9 | 3.5 | 0.00 | 0.03 | 0.00 | 87 | 1019.3 |
| 20260904003051 | 48 | 244 | 0.9 | 3.5 | 0.00 | 0.03 | 0.00 | 87 | 1019.3 |
| 20260904001558 | 47 | 0 | 0.9 | 2.6 | 0.00 | 0.03 | 0.00 | 86 | 1019.5 |
| 20260903234552 | 48 | 5 | 3.5 | 6.1 | 0.00 | 0.03 | 0.00 | 87 | 1019.3 |
| 20260903233103 | 47 | 306 | 0.9 | 2.6 | 0.00 | 0.03 | 0.00 | 86 | 1019.5 |
| 20260903231600 | 48 | 13 | 0.9 | 3.5 | 0.00 | 0.03 | 0.00 | 85 | 1019.6 |
| 20260903230105 | 48 | 312 | 0.9 | 4.3 | 0.00 | 0.03 | 0.00 | 86 | 1019.5 |
| 20260903224551 | 49 | 0 | 0.0 | 4.3 | 0.00 | 0.03 | 0.00 | 86 | 1019.5 |
| 20260903223111 | 49 | 299 | 1.7 | 3.5 | 0.00 | 0.03 | 0.00 | 85 | 1019.5 |
| 20260903221552 | 50 | 303 | 0.9 | 3.5 | 0.00 | 0.03 | 0.00 | 85 | 1019.8 |
| 20260903214553 | 51 | 336 | 0.9 | 7.0 | 0.00 | 0.03 | 0.03 | 84 | 1019.7 |
| 20260903213057 | 50 | 346 | 2.6 | 4.3 | 0.00 | 0.03 | 0.03 | 85 | 1019.5 |
| 20260903211601 | 50 | 322 | 1.7 | 6.1 | 0.00 | 0.03 | 0.03 | 85 | 1019.6 |
| 20260903210054 | 50 | 0 | 0.0 | 3.5 | 0.00 | 0.03 | 0.03 | 83 | 1019.6 |
| 20260903204604 | 50 | 234 | 1.7 | 3.5 | 0.00 | 0.03 | 0.03 | 82 | 1019.5 |
| 20260903203056 | 51 | 236 | 1.7 | 3.5 | 0.00 | 0.03 | 0.03 | 81 | 1019.6 |
| 20260903201554 | 52 | 0 | 0.0 | 2.6 | 0.00 | 0.03 | 0.03 | 81 | 1019.7 |
| 20260903200051 | 53 | 271 | 1.7 | 3.5 | 0.00 | 0.03 | 0.03 | 79 | 1019.7 |
| 20260903194553 | 55 | 37 | 1.7 | 4.3 | 0.00 | 0.03 | 0.03 | 80 | 1019.6 |
| 20260903193103 | 55 | 294 | 0.9 | 2.6 | 0.00 | 0.03 | 0.03 | 78 | 1019.6 |
| 20260903191600 | 56 | 292 | 0.9 | 2.6 | 0.00 | 0.03 | 0.03 | 78 | 1019.6 |
| 20260903190051 | 57 | 284 | 1.7 | 3.5 | 0.00 | 0.03 | 0.03 | 77 | 1019.9 |
| 20260903184552 | 57 | 235 | 0.0 | 2.6 | 0.00 | 0.03 | 0.03 | 78 | 1019.9 |
| 20260903183114 | 57 | 311 | 3.5 | 7.8 | 0.00 | 0.03 | 0.03 | 76 | 1019.8 |
| 20260903181554 | 60 | 352 | 0.0 | 2.6 | 0.00 | 0.03 | 0.03 | 71 | 1019.6 |
| 20260903180057 | 62 | 360 | 0.9 | 3.5 | 0.00 | 0.03 | 0.03 | 70 | 1019.3 |
| 20260903174551 | 62 | 9 | 2.6 | 6.1 | 0.00 | 0.03 | 0.03 | 71 | 1019.2 |
| 20260903173058 | 61 | 275 | 0.9 | 3.5 | 0.00 | 0.03 | 0.03 | 69 | 1019.1 |
| 20260903171602 | 63 | 272 | 1.7 | 6.1 | 0.00 | 0.03 | 0.03 | 66 | 1018.9 |
| 20260903170055 | 64 | 249 | 7.8 | 11.3 | 0.00 | 0.03 | 0.03 | 64 | 1018.9 |
| 20260903164555 | 65 | 257 | 6.1 | 10.4 | 0.00 | 0.03 | 0.03 | 63 | 1018.7 |
| 20260903163102 | 66 | 260 | 7.0 | 10.4 | 0.00 | 0.03 | 0.03 | 63 | 1018.7 |
| 20260903161615 | 67 | 259 | 8.7 | 15.6 | 0.00 | 0.03 | 0.03 | 62 | 1018.8 |
| 20260903160053 | 67 | 269 | 10.4 | 16.5 | 0.00 | 0.03 | 0.03 | 62 | 1018.7 |
| 20260903154550 | 67 | 263 | 9.6 | 16.5 | 0.00 | 0.03 | 0.03 | 61 | 1018.8 |
| 20260903153051 | 68 | 252 | 12.2 | 17.4 | 0.00 | 0.03 | 0.03 | 60 | 1018.5 |
| 20260903151550 | 68 | 245 | 11.3 | 16.5 | 0.00 | 0.03 | 0.03 | 59 | 1018.7 |
| 20260903144558 | 69 | 252 | 13.9 | 19.1 | 0.00 | 0.03 | 0.03 | 58 | 1019.1 |
| 20260903143054 | 69 | 246 | 12.2 | 20.0 | 0.00 | 0.03 | 0.03 | 58 | 1019.0 |
| 20260903141549 | 70 | 260 | 13.9 | 19.1 | 0.00 | 0.03 | 0.03 | 56 | 1018.9 |
| 20260903140054 | 70 | 243 | 13.9 | 21.7 | 0.00 | 0.03 | 0.03 | 56 | 1019.0 |
| 20260903134601 | 71 | 252 | 14.8 | 20.9 | 0.00 | 0.03 | 0.03 | 53 | 1018.9 |
| 20260903133100 | 71 | 236 | 12.2 | 17.4 | 0.00 | 0.03 | 0.03 | 54 | 1018.9 |
| 20260903131554 | 72 | 245 | 10.4 | 21.7 | 0.00 | 0.03 | 0.03 | 53 | 1019.1 |
| 20260903130052 | 71 | 85 | 2.6 | 7.8 | 0.00 | 0.03 | 0.03 | 53 | 1019.2 |
| 20260903124603 | 71 | 76 | 3.5 | 9.6 | 0.00 | 0.03 | 0.03 | 57 | 1019.3 |
| 20260903123053 | 70 | 27 | 0.9 | 8.7 | 0.00 | 0.03 | 0.03 | 57 | 1019.3 |
| 20260903121556 | 71 | 43 | 5.2 | 10.4 | 0.00 | 0.03 | 0.03 | 56 | 1019.3 |
| 20260903120049 | 73 | 50 | 7.0 | 11.3 | 0.00 | 0.03 | 0.03 | 54 | 1019.2 |
| 20260903114601 | 73 | 33 | 5.2 | 8.7 | 0.00 | 0.03 | 0.03 | 54 | 1019.3 |
| 20260903113053 | 73 | 250 | 4.3 | 12.2 | 0.00 | 0.03 | 0.03 | 51 | 1019.4 |
| 20260903111550 | 74 | 247 | 5.2 | 13.0 | 0.00 | 0.03 | 0.03 | 54 | 1019.7 |
| 20260903110059 | 72 | 225 | 6.1 | 10.4 | 0.00 | 0.03 | 0.03 | 54 | 1019.9 |
| 20260903104555 | 70 | 93 | 2.6 | 6.1 | 0.00 | 0.03 | 0.03 | 60 | 1020.1 |
| 20260903103052 | 70 | 56 | 0.9 | 5.2 | 0.00 | 0.03 | 0.03 | 59 | 1020.2 |
| 20260903101600 | 70 | 30 | 3.5 | 7.8 | 0.00 | 0.03 | 0.03 | 56 | 1020.2 |